Regional Weather Roundup
Issued by NWS Sterling, VA

Home | Current Version | Previous Version | Text Only | Print | Product List | Glossary On
Versions: 1 2 3 4 5 6 7 8 9 10 11 12 13 14 15 16 17 18 19 20 21 22 23 24 25 26 27 28 29 30 31 32 33 34 35 36 37 38 39 40 41 42 43 44 45 46 47 48 49 50
000
ASUS41 KLWX 261610
RWRLWX

REGIONAL WEATHER ROUNDUP
NATIONAL WEATHER SERVICE BALTIMORE MD/WASHINGTON DC
1200 PM EDT TUE MAY 26 2015

Note: "FAIR" indicates few or no clouds below 12,000 feet
with no significant weather and/or obstructions to visibility.
 TC=TEMPERATURE CELSIUS

 * =Non NWS site. Station does not report precipitation (e.g. rain,
    snow, etc.), thunder, or fog.

DCZ001-MDZ009-015-VAZ040>042-051-053>054-261700-
WASHINGTON METRO

CITY           SKY/WX    TMP DP  RH WIND       PRES   REMARKS
WASHINGTON NAT CLOUDY    82  67  60 S13       30.22F
DULLES         PTSUNNY   81  65  58 S9        30.21F
ANDREWS AFB    SUNNY     81  67  61 S12G21    30.22F
FT BELVOIR     SUNNY     82  66  58 S10       30.22F
QUANTICO       PTSUNNY   79  68  69 S12       30.23F
COLLEGE PARK*  SUNNY     81  63  54 S7        30.22S
LEESBURG*      MOSUNNY   82  66  57 S12       30.23S
MANASSAS*      SUNNY     82  66  57 S12       30.21F
GAITHERSBURG*  FAIR      81  64  57 S7        30.26F

$$

MDZ006>007-011-014-261700-
BALTIMORE METRO

CITY           SKY/WX    TMP DP  RH WIND       PRES   REMARKS
BWI AIRPORT    PTSUNNY   82  63  52 SW10      30.21F
MD SCIENCE CTR   N/A     81  64  56 MISG      30.21F
MARTIN STATE   MOSUNNY   79  68  69 SE10      30.24F
ANNAPOLIS      SUNNY     74  65  73 SE13      30.22F
FORT MEADE*    SUNNY     81  63  54 SW7       30.24F

$$

MDZ012-015-019>023-261700-
MARYLAND EASTERN SHORE

CITY           SKY/WX    TMP DP  RH WIND       PRES   REMARKS
OCEAN CITY     SUNNY     73  64  73 S9G16     30.29S
SALISBURY      SUNNY     81  65  58 SW15      30.26F
BAY BRIDGE AP*   N/A    N/A N/A N/A S12G21    30.24S
CAMBRIDGE*     SUNNY     79  64  61 S13G18    30.25S
EASTON*        MOSUNNY   82  68  61 SW9G17    30.28S

$$

MDZ017>025-261700-
SOUTHERN MARYLAND

CITY           SKY/WX    TMP DP  RH WIND       PRES   REMARKS
PATUXENT RIVER CLOUDY    81  66  60 S12G18    30.25S
ST INIGOES     SUNNY     80  67  64 S12       30.25S
LEONARDTOWN*   SUNNY     79  64  61 SW12G18   30.26S

$$

MDZ003>005-261700-
NORTH CENTRAL MARYLAND

CITY           SKY/WX    TMP DP  RH WIND       PRES   REMARKS
FREDERICK*     SUNNY     81  64  57 SW9       30.23F
HAGERSTOWN APT CLOUDY    81  60  48 SW5       30.21S
WESTMINSTER*   FAIR      81  61  50 S5        30.22F

$$

MDZ501>502-261700-
WESTERN MARYLAND

CITY           SKY/WX    TMP DP  RH WIND       PRES   REMARKS
OAKLAND*       CLOUDY    64  64 100 SW8       30.32R
CUMBERLAND*    CLOUDY    77  63  61 CALM      30.26R

$$

VAZ025>031-261700-
SHENANDOAH VALLEY

CITY           SKY/WX    TMP DP  RH WIND       PRES   REMARKS
WINCHESTER*    MOSUNNY   82  54  36 SW6       30.22S
FRONT ROYAL*   FAIR      79  64  61 S6        30.21S
LURAY*         FAIR      86  64  48 S6        30.23S
NEW MARKET*    CLOUDY    80  63  55 W5        30.22S
STAUNTON*      PTSUNNY   80  61  52 SW6       30.27S
WAYNESBORO*    FAIR      78  64  61 W6        30.27S

$$

WVZ021-048>050-054>055-261700-
EASTERN WEST VIRGINIA PANHANDLE

CITY           SKY/WX    TMP DP  RH WIND       PRES   REMARKS
MARTINSBURG    MOSUNNY   82  63  52 S7        30.21F
PETERSBURG*    CLOUDY    75  61  62 CALM      30.24S

$$

VAZ036>039-050-261700-
CENTRAL FOOTHILLS

CITY           SKY/WX    TMP DP  RH WIND       PRES   REMARKS
CHARLOTTESVILL MOSUNNY   82  65  56 S12       30.23F
CULPEPER*      SUNNY     81  65  59 S9        30.22F
ORANGE*        SUNNY     82  68  61 S10G16    30.24F
GORDONSVILLE*  FAIR      80  67  63 S12       30.22F
WARRENTON*     FAIR      83  69  62 S9        30.22S

$$

VAZ055>057-261700-
NORTH AND CENTRAL PIEDMONT

CITY           SKY/WX    TMP DP  RH WIND       PRES   REMARKS
FREDERICKSBRG* MOSUNNY   85  68  56 S14       30.22F
STAFFORD*      SUNNY     82  64  54 SW12G17   30.26F

$$

NCZ024-NYZ072-PAZ021-071-VAZ022-071-261700-
OTHER REGIONAL OBSERVATIONS

CITY           SKY/WX    TMP DP  RH WIND       PRES   REMARKS
NEW YORK CITY  SUNNY     82  61  48 VRB7      30.22F
PHILADELPHIA   MOSUNNY   83  62  49 SW18      30.22F
PITTSBURGH     CLOUDY    73  63  70 SW9       30.20S
ROANOKE        PTSUNNY   80  64  58 VRB5      30.28F
RICHMOND       PTSUNNY   81  67  62 S12       30.26F
RALEIGH        MOSUNNY   82  66  58 SW12      30.30F

$$

ANZ530>537-261700-
MARINE OBSERVATIONS

STATION/POSITION TIME  TEMP    WIND        PRES
                       AIR SEA DIR/SP/G
                 (UTC) (F)     (DEG/KT/KT) (MB)
THOMAS PT LIGHT  1600   70 67  170/ 15/ 16 1024.1F
BALT KEY BRIDGE  1500   73      90/ 10/ 10 1023.3F
LEWISETTA        1500   77 71              1024.5F
SOLOMONS ISLAND  1500      69                N/A
PINEY POINT      1500          220/ 12/ 13   N/A

$$




USA.gov is the U.S. government's official web portal to all federal, state and local government web resources and services.